[[{"header":{"parameterUnit":"m.s-1","parameterCategory":1,"la1":30.2991,"la2":30.254,"lo1":-89.0895,"lo2":-89.0444,"dy":0.0017,"dx":0.0017,"nx":28,"ny":28,"refTime":"2025-06-14T21:00:00:Z","depth":0,"parameterNumber":2,"parameterNumberName":"U-component_of_WINDS"},"data":[0,0,0,0,0,0,0,0,0,0,0,0,0,0,0,0,0,0,0,0,0,0,0,0,0,0,0,0,0,0,0,0,0,0,0,0,0,0,0,0,0,0,0,0,0,0,0,0,0,0,0,0,0,0,0,0,0,0,-0.1329,-0.1329,0,-0.1344,-0.1344,-0.1344,-0.1403,-0.1404,-0.1405,-0.1406,-0.1416,-0.1415,-0.1414,0,0,0,0,0,0,0,0,0,0,0,0,0,-0.1344,-0.1344,-0.1329,-0.1329,-0.1329,-0.1344,-0.1344,-0.1344,-0.1402,-0.1404,-0.1406,-0.1407,-0.1416,-0.1415,-0.1414,0,0,0,0,0,0,0,0,0,0,0,0,0,-0.1346,-0.1344,-0.1328,-0.136,-0.1363,-0.1344,-0.1344,-0.1344,-0.1402,-0.1404,-0.1406,-0.1408,-0.1417,-0.1415,-0.1414,-0.1364,0,0,-0.1409,-0.1409,0,0,0,0,0,0,0,0,-0.1346,-0.1345,-0.1355,-0.1358,-0.1361,-0.1374,-0.1353,-0.1351,-0.1401,-0.1387,-0.1407,-0.1409,-0.14,-0.14,-0.1398,-0.1364,-0.1365,-0.1409,-0.1408,-0.1408,-0.1407,0,0,0,0,0,0,0,-0.1346,-0.1345,-0.1334,-0.1355,-0.1359,-0.1371,-0.1374,-0.1353,-0.1382,-0.1388,-0.1393,-0.1394,-0.1402,-0.1399,-0.1399,-0.1365,-0.1409,-0.1408,-0.1407,-0.1406,-0.1292,-0.129,0,0,0,0,0,0,-0.1342,-0.1345,-0.1334,-0.1335,-0.1359,-0.137,-0.1372,-0.1367,-0.1382,-0.1386,-0.1392,-0.1397,-0.1401,-0.14,-0.1399,-0.1343,-0.1408,-0.1406,-0.1405,-0.1294,-0.1292,-0.1289,0,0,0,0,0,0,-0.1342,-0.134,-0.1333,-0.1341,-0.1341,-0.1367,-0.1361,-0.1367,-0.1364,-0.1385,-0.139,-0.1385,-0.1403,-0.1401,-0.1373,-0.1344,-0.1405,-0.1404,-0.1297,-0.1293,-0.129,-0.1229,0,0,0,0,0,0,-0.1342,-0.134,-0.1323,-0.134,-0.1341,-0.1308,-0.1359,-0.1365,-0.1362,-0.1368,-0.1379,-0.1383,-0.1404,-0.1375,-0.1371,-0.1343,-0.1403,-0.1299,-0.1295,-0.1291,-0.1233,-0.1224,-0.1216,0,0,0,0,0,-0.1343,-0.1303,-0.1321,-0.132,-0.1319,-0.1306,-0.1306,-0.1333,-0.136,-0.1342,-0.1355,-0.1383,-0.1348,-0.1372,-0.1368,-0.1339,-0.1301,-0.1296,-0.1292,-0.1237,-0.1226,-0.1216,0,0,0,0,0,0,-0.1279,-0.1306,-0.1327,-0.1292,-0.1297,-0.1316,-0.1294,-0.1319,-0.1315,-0.132,-0.1352,-0.1354,-0.1321,-0.1327,-0.1353,-0.1292,-0.1329,-0.1323,-0.1289,-0.1278,-0.1269,-0.1268,-0.1402,0,0,0,0,0,-0.1261,-0.125,-0.1274,-0.1241,-0.1242,-0.1268,-0.1263,-0.1283,-0.1289,-0.129,-0.1302,-0.1304,-0.1294,-0.1286,-0.1278,-0.1235,-0.1238,-0.1213,-0.1204,-0.1196,-0.1191,-0.1169,-0.1158,-0.1274,-0.1274,-0.1274,0,0,-0.1224,-0.1237,-0.1228,-0.1228,-0.1234,-0.1221,-0.1269,-0.1252,-0.1242,-0.1287,-0.1262,-0.127,-0.1275,-0.1239,-0.1224,-0.1243,-0.116,-0.119,-0.1184,-0.1183,-0.1163,-0.1152,-0.1142,-0.127,-0.1271,-0.1271,0,0,-0.1149,-0.1158,-0.1132,-0.1138,-0.1147,-0.1165,-0.1159,-0.1175,-0.1183,-0.1158,-0.1192,-0.118,-0.1161,-0.1164,-0.1162,-0.1089,-0.1115,-0.1086,-0.1039,-0.1017,-0.1008,-0.1,-0.0975,-0.0965,-0.108,-0.108,-0.108,0,-0.1101,-0.1084,-0.1115,-0.1097,-0.1096,-0.1139,-0.1112,-0.1115,-0.112,-0.1118,-0.114,-0.1119,-0.1125,-0.1091,-0.1073,-0.1071,-0.1064,-0.1084,-0.1007,-0.1,-0.0993,-0.0969,-0.0959,-0.1076,-0.1077,-0.1077,-0.1078,0,-0.1024,-0.1011,-0.0989,-0.0996,-0.0992,-0.097,-0.0997,-0.0989,-0.1009,-0.1024,-0.0999,-0.1008,-0.1002,-0.0996,-0.1015,-0.0964,-0.0976,-0.1002,-0.104,-0.0978,-0.0956,-0.0946,-0.1071,-0.1073,-0.1074,-0.1075,0,0,-0.0909,-0.0935,-0.0926,-0.093,-0.0944,-0.0934,-0.0913,-0.091,-0.0903,-0.0905,-0.0888,-0.0872,-0.0897,-0.0895,-0.0915,-0.0896,-0.0839,-0.0924,-0.0925,-0.0908,-0.0784,-0.0765,-0.0753,-0.0856,-0.0854,-0.0853,-0.0784,0,-0.0838,-0.0806,-0.0834,-0.0796,-0.0785,-0.0826,-0.0808,-0.0813,-0.0826,-0.0818,-0.0831,-0.082,-0.0853,-0.0853,-0.0836,-0.0849,-0.0814,-0.0854,-0.0839,-0.0838,-0.0837,-0.0742,-0.0721,-0.0656,-0.0775,-0.0774,-0.0773,0,-0.0751,-0.0752,-0.0714,-0.0732,-0.0728,-0.0711,-0.0712,-0.0703,-0.071,-0.0721,-0.072,-0.0745,-0.0725,-0.0762,-0.0734,-0.0761,-0.0757,-0.0762,-0.076,-0.076,-0.0802,-0.0739,-0.0635,-0.0626,-0.0759,-0.076,-0.0761,0,-0.0672,-0.0663,-0.064,-0.0642,-0.0661,-0.0649,-0.0656,-0.0666,-0.0663,-0.0662,-0.066,-0.0656,-0.0653,-0.0649,-0.0672,-0.0697,-0.0641,-0.0681,-0.0649,-0.0648,-0.0635,-0.0635,-0.0529,-0.0631,-0.0631,-0.0632,-0.0632,0,-0.059,-0.0565,-0.0605,-0.059,-0.0563,-0.0595,-0.0566,-0.0578,-0.0586,-0.0573,-0.0607,-0.0594,-0.0625,-0.0615,-0.0632,-0.0607,-0.0605,-0.0613,-0.0618,-0.061,-0.0609,-0.0607,-0.0612,-0.0629,-0.063,-0.063,-0.0631,0,-0.0497,-0.0522,-0.0499,-0.0521,-0.0526,-0.0505,-0.0522,-0.0509,-0.0525,-0.0508,-0.0506,-0.0531,-0.0521,-0.0543,-0.0535,-0.0547,-0.0511,-0.0523,-0.0509,-0.0513,-0.048,-0.0483,-0.0369,-0.0356,-0.0466,-0.0465,-0.0464,0,-0.0443,-0.0425,-0.0446,-0.0441,-0.0447,-0.0438,-0.0436,-0.0466,-0.0462,-0.047,-0.0455,-0.0448,-0.0445,-0.0426,-0.0442,-0.0437,-0.0449,-0.0409,-0.0448,-0.0441,-0.0449,-0.045,-0.0448,-0.0401,-0.04,-0.0399,-0.0398,0,-0.0346,-0.036,-0.0356,-0.0357,-0.0353,-0.0355,-0.0358,-0.0352,-0.0384,-0.0377,-0.0369,-0.0366,-0.036,-0.0352,-0.0351,-0.0357,-0.0382,-0.0386,-0.0378,-0.037,-0.0363,-0.0367,-0.0488,-0.0388,-0.0389,-0.039,-0.039,-0.0391,-0.0271,-0.0257,-0.027,-0.0265,-0.0271,-0.0274,-0.0263,-0.0279,-0.0273,-0.0271,-0.0289,-0.0277,-0.0285,-0.0286,-0.0289,-0.0279,-0.0296,-0.0285,-0.0282,-0.0279,-0.0274,-0.0365,-0.0278,-0.0279,-0.0279,-0.0279,-0.028,0,-0.0175,-0.0186,-0.0181,-0.0186,-0.0182,-0.0209,-0.0214,-0.0209,-0.0198,-0.0204,-0.0201,-0.0191,-0.0184,-0.02,-0.0196,-0.0184,-0.0196,-0.0182,-0.0183,-0.0184,-0.0258,-0.0266,-0.0173,-0.0173,-0.0173,-0.0173,-0.0173,-0.0173,-0.0125,-0.0104,-0.0119,-0.0101,-0.0112,-0.0102,-0.0103,-0.0105,-0.0111,-0.0099,-0.0094,-0.0106,-0.0116,-0.0112,-0.0107,-0.0112,-0.0109,-0.0091,-0.0099,-0.0168,-0.0179,-0.0189,-0.0196,-0.009,-0.009,-0.0026,-0.0026,-0.0025]},{"header":{"parameterUnit":"m.s-1","parameterCategory":1,"la1":30.2991,"la2":30.254,"lo1":-89.0895,"lo2":-89.0444,"dy":0.0017,"dx":0.0017,"nx":28,"ny":28,"refTime":"2025-06-14T21:00:00:Z","depth":0,"parameterNumber":3,"parameterNumberName":"V-component_of_WINDS"},"data":[0,0,0,0,0,0,0,0,0,0,0,0,0,0,0,0,0,0,0,0,0,0,0,0,0,0,0,0,0,0,0,0,0,0,0,0,0,0,0,0,0,0,0,0,0,0,0,0,0,0,0,0,0,0,0,0,0,0,2.6922,2.6923,0,2.7008,2.7009,2.701,2.6961,2.6959,2.6957,2.6954,2.7045,2.7049,2.7054,0,0,0,0,0,0,0,0,0,0,0,0,0,2.6718,2.6722,2.6922,2.6923,2.6924,2.7008,2.7009,2.701,2.6962,2.6959,2.6956,2.6953,2.7043,2.7049,2.7054,0,0,0,0,0,0,0,0,0,0,0,0,0,2.6805,2.6723,2.6921,2.691,2.691,2.7007,2.7009,2.701,2.6962,2.6959,2.6955,2.6952,2.7041,2.7048,2.7055,2.717,0,0,2.7076,2.7079,0,0,0,0,0,0,0,0,2.6801,2.6813,2.691,2.6911,2.6911,2.697,2.697,2.7064,2.6963,2.6942,2.6954,2.695,2.7023,2.7031,2.7055,2.7174,2.7178,2.7077,2.7081,2.7084,2.7086,0,0,0,0,0,0,0,2.6795,2.6809,2.6956,2.6912,2.6912,2.6901,2.6909,2.6988,2.7002,2.6944,2.6941,2.6951,2.7022,2.7049,2.7057,2.7179,2.7077,2.7083,2.7087,2.709,2.7396,2.74,0,0,0,0,0,0,2.6789,2.6804,2.6953,2.6958,2.6846,2.6908,2.6917,2.6955,2.7001,2.7004,2.6954,2.6949,2.7039,2.7049,2.706,2.7197,2.7084,2.7091,2.7095,2.7392,2.7397,2.7402,0,0,0,0,0,0,2.6785,2.6803,2.6949,2.688,2.6898,2.6915,2.6958,2.6958,2.6984,2.7009,2.7011,2.6979,2.7036,2.705,2.7143,2.72,2.7094,2.71,2.7388,2.7394,2.7399,2.7473,0,0,0,0,0,0,2.6779,2.6801,2.6845,2.6882,2.6902,2.703,2.6961,2.6963,2.6996,2.699,2.7032,2.7036,2.7034,2.7133,2.715,2.7208,2.7105,2.7383,2.7391,2.7398,2.7466,2.7481,2.7494,0,0,0,0,0,2.6772,2.6863,2.6847,2.6865,2.6956,2.7034,2.7045,2.7042,2.7001,2.7045,2.7061,2.7034,2.7191,2.7142,2.7161,2.7222,2.7379,2.7388,2.7397,2.746,2.7478,2.7494,0,0,0,0,0,0,2.6833,2.6867,2.6851,2.6956,2.6992,2.7025,2.7081,2.7061,2.7111,2.7103,2.7097,2.7107,2.7203,2.7222,2.7167,2.7336,2.7279,2.7292,2.732,2.7338,2.7352,2.7345,2.7111,0,0,0,0,0,2.6858,2.6917,2.6944,2.7035,2.7054,2.7064,2.7098,2.7092,2.7129,2.7145,2.7167,2.7205,2.7263,2.7301,2.7356,2.7468,2.7477,2.7519,2.7534,2.7545,2.7557,2.7618,2.7637,2.7431,2.7431,2.7431,0,0,2.6912,2.6938,2.6976,2.7048,2.7075,2.7137,2.7078,2.7146,2.7192,2.7155,2.7244,2.7262,2.7304,2.7407,2.7453,2.7426,2.7615,2.7556,2.7565,2.7571,2.7629,2.7648,2.7666,2.7437,2.7436,2.7435,0,0,2.7041,2.7067,2.7144,2.7173,2.7215,2.7221,2.724,2.7277,2.7287,2.7375,2.7349,2.7404,2.7504,2.7535,2.7564,2.7705,2.7683,2.7723,2.7797,2.7857,2.7873,2.7888,2.7938,2.7957,2.7735,2.7735,2.7735,0,2.7103,2.7194,2.7187,2.7257,2.729,2.7259,2.7338,2.7366,2.7425,2.7448,2.7416,2.754,2.7567,2.7677,2.7711,2.7735,2.7757,2.7719,2.7871,2.7886,2.7899,2.7947,2.7967,2.774,2.7739,2.7739,2.7738,0,2.7268,2.7332,2.739,2.7446,2.7485,2.756,2.7564,2.7605,2.7596,2.7606,2.7696,2.7727,2.7787,2.7813,2.7804,2.7922,2.7903,2.7872,2.7814,2.7923,2.7969,2.7987,2.7746,2.7744,2.7743,2.7742,0,0,2.7438,2.7489,2.7511,2.7536,2.758,2.7629,2.7703,2.7761,2.7796,2.7837,2.7899,2.7984,2.7955,2.7987,2.7982,2.8035,2.8145,2.7997,2.7998,2.8024,2.8277,2.8301,2.8323,2.813,2.8134,2.8137,2.8274,0,2.7571,2.7698,2.7693,2.7812,2.7872,2.7843,2.7907,2.7941,2.7952,2.8005,2.8018,2.8078,2.8035,2.8055,2.8105,2.8121,2.8196,2.8111,2.8189,2.8191,2.8179,2.8346,2.8372,2.85,2.8291,2.8294,2.8297,0,2.7742,2.7788,2.7912,2.7948,2.7972,2.803,2.8083,2.8133,2.8172,2.8176,2.8213,2.82,2.8275,2.8215,2.8319,2.8261,2.8293,2.8305,2.831,2.8318,2.8251,2.8359,2.854,2.856,2.8324,2.8322,2.832,0,2.7854,2.7947,2.8034,2.8056,2.8099,2.814,2.816,2.8195,2.8231,2.8277,2.83,2.8355,2.8386,2.8429,2.8431,2.8387,2.8536,2.8477,2.8543,2.8543,2.8576,2.8574,2.8766,2.8596,2.8595,2.8595,2.8594,0,2.8002,2.808,2.8085,2.8138,2.8224,2.8219,2.8304,2.8321,2.8352,2.8409,2.8387,2.8441,2.844,2.8495,2.8498,2.8584,2.8597,2.8604,2.8604,2.8606,2.8605,2.8627,2.8618,2.86,2.8599,2.8598,2.8597,0,2.8142,2.8148,2.8241,2.8274,2.8284,2.8346,2.8375,2.8426,2.8435,2.8507,2.8524,2.8539,2.8602,2.8609,2.8683,2.8684,2.8788,2.8778,2.8775,2.8774,2.884,2.8834,2.9053,2.9081,2.8892,2.8894,2.8895,0,2.8237,2.8295,2.8335,2.837,2.8393,2.8451,2.8486,2.8484,2.8522,2.857,2.8616,2.8677,2.8726,2.883,2.8848,2.8904,2.8896,2.8969,2.8904,2.8905,2.8898,2.8895,2.8901,2.8981,2.8983,2.8985,2.8987,0,2.8404,2.8404,2.8455,2.8509,2.8552,2.8594,2.8633,2.8664,2.8666,2.871,2.8774,2.8813,2.8888,2.895,2.9005,2.9027,2.9008,2.9007,2.9025,2.9028,2.9024,2.9028,2.881,2.9002,2.9,2.8999,2.8998,2.8998,2.8524,2.8575,2.861,2.8669,2.8698,2.8735,2.8785,2.88,2.8853,2.8914,2.8909,2.8981,2.9018,2.9091,2.9117,2.9173,2.9149,2.9176,2.9183,2.9189,2.9197,2.9015,2.9183,2.9183,2.9183,2.9182,2.9182,0,2.869,2.8711,2.8765,2.882,2.8867,2.8844,2.8886,2.8927,2.8989,2.9026,2.9074,2.9148,2.9208,2.9231,2.9289,2.933,2.9323,2.9346,2.9343,2.9349,2.9214,2.9193,2.9351,2.9351,2.9351,2.935,2.935,2.935,2.8782,2.8867,2.8872,2.8971,2.8992,2.9061,2.9088,2.9122,2.9151,2.9235,2.9284,2.9298,2.9329,2.939,2.9444,2.9449,2.9472,2.9499,2.95,2.9375,2.9358,2.9342,2.9321,2.9503,2.9504,2.9629,2.9631,2.9632]}]]